SCP
0 0 0 0 0 0 0 0 0 0 0 0 0 0 0 0 0 0 0 0 0 0 0 0 0 0 0 0 0 0 0 0 0 0 0 0 0 0 0 0 0 0 0
0 0 0 0 0 0 0 0 0 0 0 0 0 0 0 0 0 0 0 0 0 0 0 0 0 0 0 0 0 0 0 0 0 0 0 0 0 0 0 0 0 0 0
0 0 0 0 0 0 0 0 0 0 0 0 0 0 0 0 0 0 0 0 0 0 0 0 0 0 0 0 0 0 0 0 0 0 0 0 0 0 0 0 0 0 0
-0 -0 0 0 0 0 0 0 0 0 -0 0 0 0 0 0 0 0 0 0 0 0 0 0 0 0 0 0 0 0 0 0 0 0 0 0 0 0 0 0 0 0 0
0 0 0 0 0 0 0 0 -0 -0 -0 -0 -0 -0 -0 0 0 0 0 0 0 0 0 0 0 0 0 0 0 0 0 0 0 0 0 0 0 0 0 0 0 0 0
0 0 0 0 0 -0 -0 -0 -0 -0 -0 -0 -0 -0 -0 0 0 0 0 0 0 0 0 0 0 0 0 0 0 0 0 0 0 0 0 0 0 0 0 0 0 0 0
0 0 0 -0 -0 -0 -0 -0 -0 -0 -0 -0 -0 0 0 0 -0 0 0 0 0 0 0 0 0 0 0 0 0 0 0 0 0 0 0 0 0 0 0 0 0 0 0
0 0 0 -0 -0 -0 -0 -0 0 0 0 0 0 0 0 0 0 0 0 0 0 0 0 0 0 0 0 0 0 0 0 0 0 0 0 0 0 0 0 0 0 0 0
0 0 0 -0 -0 -0 0 0 0 0 0 0 0 0 0 0 0 0 0 0 0 0 0 0 0 0 0 0 0 0 0 0 0 0 0 0 0 0 0 0 0 0 0
0 0 0 0 0 0 0 0 0 0 0 0 0 0 0 0 0 0 0 0 0 0 0 0 0 0 0 0 0 0 0 0 0 0 0 0 0 0 0 0 0 0 0
0 0 0 0 0 0 0 0 0 0 0 0 0 0 0 0 0 0 0 0 0 0 0 0 0 0 0 0 0 0 0 0 0 0 0 0 0 0 0 0 0 0 0
0 0 0 0 0 0 0 0 0 0 0 0 0 0 0 0 0 0 0 0 0 0 0 0 0 0 0 0 0 0 0 0 0 0 0 0 0 0 0 0 0 0 0
0 0 0 0 0 0 0 0 0 0 0 0 0 0 0 0 0 0 0 0 0 0 0 0 0 0 0 0 0 0 0 0 0 0 0 0 0 0 0 0 0 0 0
0 0 0 0 0 0 0 0 0 0 0 0 0 0 0 0 0 0 0 0 0 0 0 0 0 0 0 0 0 0 0 0 0 0 0 0 0 0 0 0 0 0 0
0 0 0 0 0 0 0 0 0 0 -0 0 0 0 0 0 0 0 0 0 0 0 0 0 0 0 0 0 0 0 0 0 0 0 0 0 0 0 0 0 0 0 0
0 0 0 0 0 0 0 0 -0 -0 -0 -0 0 0 0 0 0 0 0 0 0 0 0 0 0 0 0 0 0 0 0 0 0 0 0 0 0 0 0 0 0 0 0
0 0 0 0 0 0 0 0 0 0 0 0 0 0 0 0 0 0 0 0 0 0 0 0 0 0 0 0 0 0 0 0 0 0 0 0 0 0 0 0 0 0 0
0 0 0 0 0 0 0 0 0 0 0 0 0 0 0 0 0 0 0 0 0 0 0 0 0 0 0 0 0 0 0 0 0 0 0 0 0 0 0 0 0 0 0
0 0 0 0 0 0 0 0 0 0 0 0 0 0 0 0 0 0 0 0 0 0 0 0 0 0 0 0 0 0 0 0 0 0 0 0 0 0 0 0 0 0 0
0 0 0 0 0 0 0 0 0 0 0 0 0 0 0 0 0 0 0 0 0 0 0 0 0 0 0 0 0 0 0 0 0 0 0 0 0 0 0 0 0 0 0
0 0 0 0 0 0 0 0 0 0 0 0 0 0 0 0 0 0 0 0 0 0 0 0 0 0 0 0 0 0 0 0 0 0 0 0 0 0 0 0 0 0 0
0 0 0 0 0 0 0 0 0 0 0 0 0 0 0 0 0 0 0 0 0 0 0 0 0 0 0 0 0 0 0 0 0 0 0 0 0 0 0 0 0 0 0
0 0 0 0 0 0 0 0 0 0 0 0 0 0 0 0 0 0 0 0 0 0 0 0 0 0 0 0 0 0 0 0 0 0 0 0 0 0 0 0 0 0 0
0 0 0 0 0 0 0 0 0 0 0 0 0 0 0 0 0 0 0 0 0 0 0 0 0 0 0 0 0 0 0 0 0 0 0 0 0 0 0 0 0 0 0
0 0 0 0 0 0 0 0 0 0 0 0 0 0 0 0 0 0 0 0 0 0 0 0 0 0 0 0 0 0 0 0 0 0 0 0 0 0 0 0 0 0 0
0 0 0 0 0 0 0 0 0 0 0 0 0 0 0 0 0 0 0 0 0 0 0 0 0 0 0 0 0 0 0 0 0 0 0 0 0 0 0 0 0 0 0
Wind_Speed_500mb
20 23 25 28 30 33 35 39 43 47 51 54 57 60 62 64 64 66 65 65 67 70 73 74 74 72 80 79 78 78 78 82 87 92 87 77 71 74 72 70 69 67 64
26 27 28 30 33 36 39 43 48 51 53 57 61 65 67 69 69 70 73 76 79 79 76 78 83 80 83 81 81 82 83 84 85 91 90 85 82 78 76 70 70 69 68
33 35 37 40 43 47 49 50 51 54 56 59 64 69 74 77 79 78 80 81 83 87 88 89 89 85 90 92 92 91 92 88 84 86 91 87 85 83 80 77 74 69 68
41 45 48 51 53 53 54 55 58 62 68 70 70 72 74 77 79 81 84 89 90 90 92 96 98 97 97 96 98 99 98 96 91 87 87 90 89 87 81 80 80 76 72
44 46 49 51 54 57 61 66 70 74 79 84 90 91 92 92 90 88 88 92 95 99 97 96 101 103 104 101 99 103 102 101 101 97 93 97 97 92 91 86 81 80 75
42 46 51 58 63 68 74 80 86 92 95 98 100 104 106 104 100 94 90 95 100 102 107 103 100 100 104 107 102 99 105 104 106 107 102 98 106 100 97 93 86 90 85
47 52 60 67 73 79 84 88 91 97 100 102 102 103 107 106 102 98 91 91 97 104 107 109 110 106 106 105 103 100 100 107 108 110 111 115 115 118 110 99 92 96 101
54 59 66 74 80 84 88 88 89 92 92 96 98 98 101 100 98 97 94 92 95 98 101 103 104 109 105 104 101 101 101 103 107 111 115 108 108 113 105 97 88 89 93
59 64 70 77 82 83 84 86 87 92 94 95 96 98 101 103 97 96 93 92 94 97 98 99 97 101 101 95 97 99 104 108 108 107 106 106 109 110 98 77 84 85 93
62 65 69 72 75 79 82 85 87 88 92 94 97 95 97 101 98 95 83 80 89 93 98 98 95 95 95 92 87 92 97 105 105 105 103 107 99 89 73 82 80 92 96
60 63 66 69 73 76 77 79 82 85 87 89 94 94 93 94 98 95 79 76 81 88 92 97 96 93 91 98 93 82 90 83 94 97 94 95 88 80 77 74 75 86 88
60 63 65 66 67 70 72 74 75 79 84 87 91 96 94 94 95 98 83 75 75 80 94 103 101 92 88 90 95 92 77 78 90 88 85 84 84 80 81 75 76 77 73
59 60 62 61 61 62 68 71 74 76 80 84 88 95 100 99 100 96 94 87 89 87 91 90 99 99 94 84 89 87 72 80 90 85 81 80 80 74 69 68 69 70 66
58 57 57 58 59 59 62 67 73 77 77 79 85 87 94 101 102 101 103 106 108 103 98 104 97 98 92 81 82 79 61 82 88 82 74 73 71 65 65 64 68 65 62
52 52 53 56 61 65 65 70 74 74 69 69 72 71 80 94 95 89 92 99 102 101 102 103 101 88 89 81 75 66 57 78 79 75 67 61 61 63 63 58 59 63 61
49 51 55 59 62 66 72 76 70 74 77 77 74 64 81 68 77 87 89 92 94 90 88 89 85 79 74 74 67 64 64 71 75 70 59 51 61 68 67 64 62 62 64
48 51 54 58 63 69 72 78 88 83 77 81 84 84 79 75 81 81 83 88 86 77 73 73 72 70 64 67 69 68 65 73 70 63 56 50 55 62 65 66 65 60 57
45 49 55 59 63 67 72 77 82 89 98 99 91 91 89 88 88 77 82 84 86 77 69 72 73 66 56 60 65 63 58 64 63 59 56 50 51 57 61 61 58 56 56
48 52 56 60 64 70 75 80 84 88 93 98 102 99 95 93 87 86 80 74 74 76 73 69 63 55 54 58 62 60 52 53 55 56 53 47 45 47 50 50 51 52 52
45 51 57 63 69 74 78 83 86 89 92 94 96 94 95 94 95 93 85 77 72 69 70 67 63 61 58 53 55 54 45 40 40 46 46 39 38 40 42 44 48 51 51
48 53 60 66 72 77 80 84 85 85 86 89 90 88 76 73 81 80 79 75 69 66 65 65 61 52 49 44 44 42 33 29 29 30 37 37 36 37 38 41 43 44 43
51 59 65 70 76 80 82 81 81 82 83 86 88 86 81 78 77 75 73 70 66 61 58 56 54 47 39 35 32 26 21 19 21 24 28 33 34 35 37 40 41 41 40
57 65 71 74 76 78 79 78 78 78 80 80 82 83 81 78 75 72 71 69 65 60 55 50 47 43 35 26 20 16 12 13 15 17 22 26 30 33 35 36 36 37 38
61 67 72 76 78 78 77 78 78 78 78 79 79 78 77 75 73 70 67 65 63 58 53 48 43 40 37 30 21 15 13 13 13 14 17 22 26 30 32 33 34 33 31
63 68 70 72 73 74 75 75 76 77 77 76 77 76 75 72 71 68 66 64 61 58 53 48 43 38 34 32 31 27 23 21 20 20 23 26 30 32 33 33 32 30 34
64 66 68 68 69 71 72 75 75 75 76 76 75 75 73 72 69 67 64 62 59 56 52 47 43 38 34 30 28 28 26 25 24 24 25 26 28 29 29 27 27 30 34
Wind_Direction_500mb
355 350 343 339 337 334 330 330 328 329 327 324 321 317 313 309 306 301 297 293 291 292 290 285 280 275 275 275 273 267 259 259 257 260 261 258 253 250 247 244 240 240 244
359 354 350 346 342 337 337 334 330 326 323 324 322 322 322 321 318 316 310 302 295 290 287 284 283 281 274 272 269 261 257 258 257 260 262 256 251 248 244 241 240 235 240
358 355 351 350 349 348 346 340 335 329 328 325 321 318 317 317 317 317 316 312 305 297 290 285 281 279 275 273 270 263 258 256 253 254 257 257 251 244 238 235 235 232 234
354 352 352 352 351 348 343 338 335 335 331 327 324 322 321 320 319 316 312 309 307 303 297 288 283 280 276 274 273 270 263 259 254 245 248 253 253 247 237 233 232 229 228
352 347 346 345 341 336 332 331 329 326 324 322 319 317 316 316 316 316 313 307 301 298 296 294 289 283 279 277 275 271 268 264 257 247 242 242 244 242 238 232 233 233 230
344 343 338 333 330 328 328 328 326 322 319 316 315 314 313 313 315 315 312 306 301 298 294 293 292 289 283 279 274 271 269 265 261 255 248 245 244 248 241 236 234 224 221
338 333 328 326 326 329 326 323 319 317 316 316 316 316 315 317 319 319 317 309 302 299 296 294 291 289 289 284 280 276 269 266 262 259 253 247 245 243 240 234 237 231 231
331 328 325 327 327 325 323 322 321 320 320 321 321 320 316 317 320 318 317 312 306 301 298 296 294 291 288 288 285 279 273 266 264 258 256 255 249 248 245 242 255 234 229
326 327 329 328 327 327 326 326 325 322 323 322 320 320 319 318 320 320 319 316 310 305 302 299 296 293 289 289 288 282 278 272 266 262 256 250 247 248 247 237 231 225 219
330 333 333 330 328 327 327 327 326 325 323 325 325 325 323 322 324 325 327 324 318 315 308 304 301 298 295 294 287 282 275 277 274 266 253 252 247 246 240 241 237 225 214
336 333 330 329 328 326 327 328 328 330 329 330 329 329 329 330 328 329 327 323 318 313 309 307 302 299 296 294 292 282 282 280 267 261 255 246 244 238 227 228 230 229 223
331 329 328 328 329 329 331 332 334 334 334 335 333 332 333 333 332 329 326 322 319 312 306 310 309 305 298 290 286 285 285 270 257 251 245 240 233 228 228 221 221 225 223
328 329 329 333 334 334 335 337 338 340 340 338 337 335 333 333 332 330 328 324 320 316 311 302 305 306 304 289 284 279 282 254 249 243 240 236 229 228 221 213 212 215 213
329 331 334 335 337 338 340 341 342 343 341 340 338 335 331 331 331 331 329 324 320 317 316 310 301 300 299 300 289 281 272 246 245 241 234 233 226 214 213 211 207 208 208
331 334 336 338 339 339 340 341 342 343 341 332 331 326 323 326 328 324 321 320 320 317 316 309 306 298 297 301 287 275 256 238 234 238 240 238 222 214 212 205 205 201 199
333 336 338 338 339 339 340 340 342 341 339 338 336 328 327 320 321 322 324 322 320 319 318 318 311 304 298 298 272 263 248 241 238 239 237 235 223 212 207 201 205 206 211
332 335 337 339 340 342 342 340 337 338 337 335 335 334 334 326 326 327 326 326 326 326 324 324 332 326 313 296 273 264 259 247 242 236 230 227 220 214 209 207 207 210 213
332 336 339 341 342 341 340 339 337 335 333 332 332 333 332 330 328 330 333 329 330 334 334 329 329 328 323 299 279 266 256 244 232 227 224 225 219 216 211 210 214 217 212
338 340 340 342 342 340 338 336 334 332 331 329 327 324 329 328 330 332 334 337 335 335 337 336 333 325 320 303 284 269 262 250 238 227 222 221 220 218 215 218 221 218 214
339 340 342 342 339 337 336 334 332 331 329 328 328 331 331 333 331 332 335 337 336 336 338 338 336 334 326 298 283 272 260 254 245 235 228 226 224 223 221 221 218 216 213
340 341 340 337 335 335 335 334 333 330 329 329 329 331 331 325 328 330 332 334 334 335 337 341 341 337 328 316 294 277 268 265 255 243 233 226 224 221 220 218 216 214 212
339 339 336 336 335 335 335 334 333 332 331 330 329 330 332 332 332 332 331 332 334 333 333 335 340 342 335 324 310 296 284 274 263 249 235 229 226 224 217 211 210 211 211
336 334 335 336 336 336 334 333 332 330 330 330 330 331 333 334 334 333 332 332 333 334 333 332 330 334 343 338 321 305 292 288 282 264 245 230 218 210 209 212 214 215 215
332 334 335 336 335 334 332 331 330 330 330 330 331 333 334 333 333 334 333 332 332 333 333 332 330 327 322 326 327 315 294 277 258 237 222 217 214 215 217 220 222 222 221
334 334 334 332 332 332 330 331 332 330 330 330 330 331 333 333 333 333 333 332 331 330 330 330 330 328 324 315 307 299 290 276 263 250 242 237 236 234 230 227 225 225 228
332 331 330 330 331 331 331 332 331 331 331 331 330 329 329 331 331 330 331 331 331 331 330 329 328 326 323 318 310 300 288 278 267 257 249 241 236 232 230 230 233 235 234
Wind_Speed_850mb
20 23 25 28 30 33 35 39 43 47 51 54 57 60 62 64 64 66 65 65 67 70 73 74 74 72 80 79 78 78 78 82 87 92 87 77 71 74 72 70 69 67 64
26 27 28 30 33 36 39 43 48 51 53 57 61 65 67 69 69 70 73 76 79 79 76 78 83 80 83 81 81 82 83 84 85 91 90 85 82 78 76 70 70 69 68
33 35 37 40 43 47 49 50 51 54 56 59 64 69 74 77 79 78 80 81 83 87 88 89 89 85 90 92 92 91 92 88 84 86 91 87 85 83 80 77 74 69 68
41 45 48 51 53 53 54 55 58 62 68 70 70 72 74 77 79 81 84 89 90 90 92 96 98 97 97 96 98 99 98 96 91 87 87 90 89 87 81 80 80 76 72
44 46 49 51 54 57 61 66 70 74 79 84 90 91 92 92 90 88 88 92 95 99 97 96 101 103 104 101 99 103 102 101 101 97 93 97 97 92 91 86 81 80 75
42 46 51 58 63 68 74 80 86 92 95 98 100 104 106 104 100 94 90 95 100 102 107 103 100 100 104 107 102 99 105 104 106 107 102 98 106 100 97 93 86 90 85
47 52 60 67 73 79 84 88 91 97 100 102 102 103 107 106 102 98 91 91 97 104 107 109 110 106 106 105 103 100 100 107 108 110 111 115 115 118 110 99 92 96 101
54 59 66 74 80 84 88 88 89 92 92 96 98 98 101 100 98 97 94 92 95 98 101 103 104 109 105 104 101 101 101 103 107 111 115 108 108 113 105 97 88 89 93
59 64 70 77 82 83 84 86 87 92 94 95 96 98 101 103 97 96 93 92 94 97 98 99 97 101 101 95 97 99 104 108 108 107 106 106 109 110 98 77 84 85 93
62 65 69 72 75 79 82 85 87 88 92 94 97 95 97 101 98 95 83 80 89 93 98 98 95 95 95 92 87 92 97 105 105 105 103 107 99 89 73 82 80 92 96
60 63 66 69 73 76 77 79 82 85 87 89 94 94 93 94 98 95 79 76 81 88 92 97 96 93 91 98 93 82 90 83 94 97 94 95 88 80 77 74 75 86 88
60 63 65 66 67 70 72 74 75 79 84 87 91 96 94 94 95 98 83 75 75 80 94 103 101 92 88 90 95 92 77 78 90 88 85 84 84 80 81 75 76 77 73
59 60 62 61 61 62 68 71 74 76 80 84 88 95 100 99 100 96 94 87 89 87 91 90 99 99 94 84 89 87 72 80 90 85 81 80 80 74 69 68 69 70 66
58 57 57 58 59 59 62 67 73 77 77 79 85 87 94 101 102 101 103 106 108 103 98 104 97 98 92 81 82 79 61 82 88 82 74 73 71 65 65 64 68 65 62
52 52 53 56 61 65 65 70 74 74 69 69 72 71 80 94 95 89 92 99 102 101 102 103 101 88 89 81 75 66 57 78 79 75 67 61 61 63 63 58 59 63 61
49 51 55 59 62 66 72 76 70 74 77 77 74 64 81 68 77 87 89 92 94 90 88 89 85 79 74 74 67 64 64 71 75 70 59 51 61 68 67 64 62 62 64
48 51 54 58 63 69 72 78 88 83 77 81 84 84 79 75 81 81 83 88 86 77 73 73 72 70 64 67 69 68 65 73 70 63 56 50 55 62 65 66 65 60 57
45 49 55 59 63 67 72 77 82 89 98 99 91 91 89 88 88 77 82 84 86 77 69 72 73 66 56 60 65 63 58 64 63 59 56 50 51 57 61 61 58 56 56
48 52 56 60 64 70 75 80 84 88 93 98 102 99 95 93 87 86 80 74 74 76 73 69 63 55 54 58 62 60 52 53 55 56 53 47 45 47 50 50 51 52 52
45 51 57 63 69 74 78 83 86 89 92 94 96 94 95 94 95 93 85 77 72 69 70 67 63 61 58 53 55 54 45 40 40 46 46 39 38 40 42 44 48 51 51
48 53 60 66 72 77 80 84 85 85 86 89 90 88 76 73 81 80 79 75 69 66 65 65 61 52 49 44 44 42 33 29 29 30 37 37 36 37 38 41 43 44 43
51 59 65 70 76 80 82 81 81 82 83 86 88 86 81 78 77 75 73 70 66 61 58 56 54 47 39 35 32 26 21 19 21 24 28 33 34 35 37 40 41 41 40
57 65 71 74 76 78 79 78 78 78 80 80 82 83 81 78 75 72 71 69 65 60 55 50 47 43 35 26 20 16 12 13 15 17 22 26 30 33 35 36 36 37 38
61 67 72 76 78 78 77 78 78 78 78 79 79 78 77 75 73 70 67 65 63 58 53 48 43 40 37 30 21 15 13 13 13 14 17 22 26 30 32 33 34 33 31
63 68 70 72 73 74 75 75 76 77 77 76 77 76 75 72 71 68 66 64 61 58 53 48 43 38 34 32 31 27 23 21 20 20 23 26 30 32 33 33 32 30 34
64 66 68 68 69 71 72 75 75 75 76 76 75 75 73 72 69 67 64 62 59 56 52 47 43 38 34 30 28 28 26 25 24 24 25 26 28 29 29 27 27 30 34
Wind_Direction_850mb
355 350 343 339 337 334 330 330 328 329 327 324 321 317 313 309 306 301 297 293 291 292 290 285 280 275 275 275 273 267 259 259 257 260 261 258 253 250 247 244 240 240 244
359 354 350 346 342 337 337 334 330 326 323 324 322 322 322 321 318 316 310 302 295 290 287 284 283 281 274 272 269 261 257 258 257 260 262 256 251 248 244 241 240 235 240
358 355 351 350 349 348 346 340 335 329 328 325 321 318 317 317 317 317 316 312 305 297 290 285 281 279 275 273 270 263 258 256 253 254 257 257 251 244 238 235 235 232 234
354 352 352 352 351 348 343 338 335 335 331 327 324 322 321 320 319 316 312 309 307 303 297 288 283 280 276 274 273 270 263 259 254 245 248 253 253 247 237 233 232 229 228
352 347 346 345 341 336 332 331 329 326 324 322 319 317 316 316 316 316 313 307 301 298 296 294 289 283 279 277 275 271 268 264 257 247 242 242 244 242 238 232 233 233 230
344 343 338 333 330 328 328 328 326 322 319 316 315 314 313 313 315 315 312 306 301 298 294 293 292 289 283 279 274 271 269 265 261 255 248 245 244 248 241 236 234 224 221
338 333 328 326 326 329 326 323 319 317 316 316 316 316 315 317 319 319 317 309 302 299 296 294 291 289 289 284 280 276 269 266 262 259 253 247 245 243 240 234 237 231 231
331 328 325 327 327 325 323 322 321 320 320 321 321 320 316 317 320 318 317 312 306 301 298 296 294 291 288 288 285 279 273 266 264 258 256 255 249 248 245 242 255 234 229
326 327 329 328 327 327 326 326 325 322 323 322 320 320 319 318 320 320 319 316 310 305 302 299 296 293 289 289 288 282 278 272 266 262 256 250 247 248 247 237 231 225 219
330 333 333 330 328 327 327 327 326 325 323 325 325 325 323 322 324 325 327 324 318 315 308 304 301 298 295 294 287 282 275 277 274 266 253 252 247 246 240 241 237 225 214
336 333 330 329 328 326 327 328 328 330 329 330 329 329 329 330 328 329 327 323 318 313 309 307 302 299 296 294 292 282 282 280 267 261 255 246 244 238 227 228 230 229 223
331 329 328 328 329 329 331 332 334 334 334 335 333 332 333 333 332 329 326 322 319 312 306 310 309 305 298 290 286 285 285 270 257 251 245 240 233 228 228 221 221 225 223
328 329 329 333 334 334 335 337 338 340 340 338 337 335 333 333 332 330 328 324 320 316 311 302 305 306 304 289 284 279 282 254 249 243 240 236 229 228 221 213 212 215 213
329 331 334 335 337 338 340 341 342 343 341 340 338 335 331 331 331 331 329 324 320 317 316 310 301 300 299 300 289 281 272 246 245 241 234 233 226 214 213 211 207 208 208
331 334 336 338 339 339 340 341 342 343 341 332 331 326 323 326 328 324 321 320 320 317 316 309 306 298 297 301 287 275 256 238 234 238 240 238 222 214 212 205 205 201 199
333 336 338 338 339 339 340 340 342 341 339 338 336 328 327 320 321 322 324 322 320 319 318 318 311 304 298 298 272 263 248 241 238 239 237 235 223 212 207 201 205 206 211
332 335 337 339 340 342 342 340 337 338 337 335 335 334 334 326 326 327 326 326 326 326 324 324 332 326 313 296 273 264 259 247 242 236 230 227 220 214 209 207 207 210 213
332 336 339 341 342 341 340 339 337 335 333 332 332 333 332 330 328 330 333 329 330 334 334 329 329 328 323 299 279 266 256 244 232 227 224 225 219 216 211 210 214 217 212
338 340 340 342 342 340 338 336 334 332 331 329 327 324 329 328 330 332 334 337 335 335 337 336 333 325 320 303 284 269 262 250 238 227 222 221 220 218 215 218 221 218 214
339 340 342 342 339 337 336 334 332 331 329 328 328 331 331 333 331 332 335 337 336 336 338 338 336 334 326 298 283 272 260 254 245 235 228 226 224 223 221 221 218 216 213
340 341 340 337 335 335 335 334 333 330 329 329 329 331 331 325 328 330 332 334 334 335 337 341 341 337 328 316 294 277 268 265 255 243 233 226 224 221 220 218 216 214 212
339 339 336 336 335 335 335 334 333 332 331 330 329 330 332 332 332 332 331 332 334 333 333 335 340 342 335 324 310 296 284 274 263 249 235 229 226 224 217 211 210 211 211
336 334 335 336 336 336 334 333 332 330 330 330 330 331 333 334 334 333 332 332 333 334 333 332 330 334 343 338 321 305 292 288 282 264 245 230 218 210 209 212 214 215 215
332 334 335 336 335 334 332 331 330 330 330 330 331 333 334 333 333 334 333 332 332 333 333 332 330 327 322 326 327 315 294 277 258 237 222 217 214 215 217 220 222 222 221
334 334 334 332 332 332 330 331 332 330 330 330 330 331 333 333 333 333 333 332 331 330 330 330 330 328 324 315 307 299 290 276 263 250 242 237 236 234 230 227 225 225 228
332 331 330 330 331 331 331 332 331 331 331 331 330 329 329 331 331 330 331 331 331 331 330 329 328 326 323 318 310 300 288 278 267 257 249 241 236 232 230 230 233 235 234